Location: Feydey
(46.3431°N, 7.0106°E)
Time: 19:19:39
(UTC+00:00)

Cosmos 1328 - Pass Details

Date: 25 October 2021
Orbit: 529 x 552 km, 82.5° (Epoch: 03 December)

Event Time Altitude Azimuth Distance (km) Brightness Sun altitude
Rises 18:48:08 0° 328° (NNW) 2,737 7.9 -24.8°
Reaches altitude 10° 18:52:17 10° 286° (WNW) 1,836 7.5 -25.5°
Maximum altitude 18:52:53 10° 278° (W) 1,816 7.5 -25.6°
Drops below altitude 10° 18:53:29 10° 269° (W) 1,834 7.5 -25.7°
Sets 18:57:37 0° 227° (SW) 2,718 7.9 -26.4°
